Regional Weather Roundup
Issued by NWS Sioux Falls, SD

Home | Current Version | Previous Version | Graphics & Text | Print | Product List | Glossary On
Versions: 1 2 3 4 5 6 7 8 9 10 11 12 13 14 15 16 17 18 19 20 21 22 23 24 25 26 27 28 29 30 31 32 33 34 35 36 37 38 39 40 41 42 43 44 45 46 47 48 49 50
000
ASUS43 KFSD 240310
RWRFSD

WEATHER ROUNDUP FOR SE SOUTH DAKOTA/SW MINNESOTA/NW IOWA
NATIONAL WEATHER SERVICE SIOUX FALLS SD
1000 PM CDT WED APR 23 2014

NOTE: "FAIR" INDICATES FEW OR NO CLOUDS BELOW 12,000 FEET WITH NO
SIGNIFICANT WEATHER AND OR OBSTRUCTIONS TO VISIBILITY.


SDZ038>040-050-052>070-240400-
SOUTHEAST SOUTH DAKOTA

CITY           SKY/WX    TMP DP  RH WIND       PRES   REMARKS
CHAMBERLAIN      N/A     59  42  53 N20G29    29.64R
HURON          MOCLDY    56  41  57 SE21G28   29.64R
MADISON        FAIR      46  39  76 SE17G30   29.69R
MITCHELL       PTCLDY    57  43  59 SE26G32   29.62R
SIOUX FALLS    CLOUDY    48  39  71 SE21G28   29.71R
WINNER         CLOUDY    58  39  49 NW18      29.70R
YANKTON        CLOUDY    54  45  71 E13       29.64R
$$

MNZ071-072-080-081-089-090-097-098-240400-
SOUTHWEST MINNESOTA

CITY           SKY/WX    TMP DP  RH WIND       PRES   REMARKS
FAIRMONT       CLOUDY    45  36  70 SE17      29.85R
JACKSON        CLOUDY    45  36  70 SE18      29.80R
LUVERNE        TSTM      48  37  66 SE15G21   29.75R
MARSHALL       MOCLDY    46  36  66 SE18G28   29.77R
MONTEVIDEO     CLOUDY    43  37  81 SE15      29.82R
PIPESTONE      CLOUDY    46  37  71 SE16G28   29.73R
REDWOOD FALLS  CLOUDY    44  37  76 SE16G23   29.82R
TRACY          CLOUDY    45  38  75 SE18      29.78R
WINDOM         RAIN      45  39  81 E14G21    29.81R
WORTHINGTON    CLOUDY    45  34  65 SE15      29.80R
$$

IAZ001>003-012>014-020>022-031-032-NEZ013-014-SDZ071-240400-
NORTHWEST IOWA

CITY           SKY/WX    TMP DP  RH WIND       PRES   REMARKS
CHEROKEE       CLOUDY    48  40  73 E9        29.76R
DENISON        LGT RAIN  50  43  76 SE10G18   29.75R
ESTHERVILLE    LGT RAIN  43  40  89 SE22      29.79F
LE MARS          N/A     48  43  81 SE10      29.73R
ORANGE CITY    CLOUDY    46  39  76 SE13G23   29.71R
SHELDON        CLOUDY    46  39  76 SE20G29   29.73R
SIOUX CITY     LGT RAIN  52  47  83 E8        29.70R
SPENCER        LGT RAIN  45  39  79 SE13      29.78R
STORM LAKE     CLOUDY    45  43  93 SE16G26   29.74R
$$

ABBREVIATIONS USED IN REMARKS
   TC - TEMPERATURE IN CELSIUS
  WCI - WIND CHILL INDEX
   HX - HEAT INDEX
  VSB - VISIBILITY




USA.gov is the U.S. government's official web portal to all federal, state and local government web resources and services.